STARLINK-36702

Last updated on Tue Mar 10 2026 00:02:05 GMT+0000 (Coordinated Universal Time)

1 67714U 26025X 26068.58335648 .00067116 00000+0 44798-3 0 9999 2 67714 97.2845 180.2894 0001188 96.6102 206.2016 15.75155990 5634
UTC large
Height (km)
Speed (km/s)
/
Latitude / Longitude
Inclination (degrees)
Orbital Period (minutes)
Azimuth
Elevation
Range (km)
Doppler Factor

Next 0 passes for location: London (51.5072 / 0.1276)

Sorry there are no passes over London.